Regional Weather Roundup
Issued by NWS

Home | Current Version | Previous Version | Text Only | Print | Product List | Glossary Off
Versions: 1 2 3 4 5 6 7 8 9 10 11 12 13 14 15 16 17 18 19 20 21 22 23 24 25 26 27 28 29 30 31 32 33 34 35 36 37 38 39 40 41 42 43 44 45 46 47 48 49 50

053
ASUS43 KFSD 282310
RWRSD

WEATHER ROUNDUP FOR SOUTH DAKOTA
NATIONAL WEATHER SERVICE SIOUX FALLS SD
600 PM CDT FRI APR 28 2017

NOTE: "FAIR" INDICATES FEW OR NO CLOUDS BELOW 12,000 FEET WITH NO
SIGNIFICANT WEATHER AND/OR OBSTRUCTIONS TO VISIBILITY.


SDZ001>005-009-010-012>017-290000-
NORTHWEST AND NORTH CENTRAL SOUTH DAKOTA

CITY           SKY/WX    TMP DP  RH WIND       PRES   REMARKS
BUFFALO          N/A     50  24  36 E8        30.00R
FAITH            N/A     51  22  31 E14G20    30.05R
MOBRIDGE       PTSUNNY   56  10  16 NE10      30.03R
$$

SDZ012>016-024>037-041>051-057-063-072>074-290000-
SOUTHWEST AND SOUTH CENTRAL SOUTH DAKOTA

CITY           SKY/WX    TMP DP  RH WIND       PRES   REMARKS
RAPID CTY ARPT CLOUDY    46  27  47 NE9       30.04R
PIERRE         MOSUNNY   51  20  29 NE14G24   30.02R
CUSTER         CLOUDY    33  22  63 NE8       30.00R WCI  26
ELLSWORTH AFB  CLOUDY    46  24  42 NE12      30.04R
PHILIP         MOSUNNY   50  24  36 NE14      30.02R
PINE RIDGE     CLOUDY    44  29  55 NE10      30.00R
SPEARFISH      FAIR      43  25  49 NE10      30.06R
WINNER         FAIR      54  28  36 NE20G25   29.97S
$$

SDZ004>011-016>023-039-040-290000-
NORTHEAST SOUTH DAKOTA

CITY           SKY/WX    TMP DP  RH WIND       PRES   REMARKS
ABERDEEN       MOSUNNY   53  17  24 N15G22    30.04S
WATERTOWN      CLOUDY    49  20  31 N18       30.01R
BROOKINGS      CLOUDY    49  24  37 NE15G23   29.99R
SISSETON         N/A     54  17  23 N16       30.03R
$$

SDZ017-020-022-023-036>040-048>070-290000-
SOUTHEAST SOUTH DAKOTA

CITY           SKY/WX    TMP DP  RH WIND       PRES   REMARKS
SIOUX FALLS    CLOUDY    48  32  53 NE14      29.98R
HURON          MOSUNNY   54  22  28 N18G29    30.01R
CHAMBERLAIN    MOSUNNY   54  26  34 N15G22    29.98S
MITCHELL       CLOUDY    53  28  38 E17       30.00R
YANKTON        CLOUDY    48  32  53 NE16      29.96R
$$

ABBREVIATIONS USED IN REMARKS
   TC - TEMPERATURE IN CELSIUS
  WCI - WIND CHILL INDEX
   HX - HEAT INDEX
  VSB - VISIBILITY





USA.gov is the U.S. government's official web portal to all federal, state and local government web resources and services.